Regional Weather Roundup
Issued by NWS Portland, ME

Home | Current Version | Previous Version | Text Only | Print | Product List | Glossary On
Versions: 1 2 3 4 5 6 7 8 9 10 11 12 13 14 15 16 17 18 19 20 21 22 23 24 25 26 27 28 29 30 31 32 33 34 35 36 37 38 39 40 41 42 43 44 45 46 47 48 49 50
000
ASUS41 KGYX 041410
RWRGYX
WEATHER ROUNDUP FOR MAINE AND NEW HAMPSHIRE
NATIONAL WEATHER SERVICE GRAY ME
1000 AM EDT MON MAY 04 2015

MEZ002-005-006-010-012-015-018-020-021-024-026-027-029-041500-
MAINE

CITY           SKY/WX    TMP DP  RH WIND       PRES   REMARKS
PORTLAND       SUNNY     66  48  52 E5        30.15F
SANFORD        SUNNY     75  45  33 SW8       30.16S
BAR HARBOR     SUNNY     57  48  72 S10       30.16S
WISCASSET      SUNNY     63  48  58 SE3       30.16F
ROCKLAND       SUNNY     55  46  71 SE6       30.15S
FRYEBURG       SUNNY     72  45  37 VRB3      30.13F
LEWISTONAUBURN SUNNY     64  46  52 CALM      30.15S
AUGUSTA        SUNNY     62  46  55 VRB6      30.15F
WATERVILLE     SUNNY     61  46  59 SW8       30.12S
BANGOR         MOSUNNY   60  45  57 S9        30.13F
GREENVILLE       N/A     71  38  29 VRB6      30.09F
MILLINOCKET    SUNNY     64  45  49 VRB3      30.10F
HOULTON        SUNNY     65  43  44 S7        30.07F
PRESQUE ISLE   SUNNY     68  43  40 SE8       30.04F
FRENCHVILLE    SUNNY     64  42  44 SE8       30.00F
CARIBOU        SUNNY     66  44  45 S8        30.03F
$$

NHZ002-005-008-009-011-012-014-041500-
NEW HAMPSHIRE

CITY           SKY/WX    TMP DP  RH WIND       PRES   REMARKS
PORTSMOUTH     MOSUNNY   70  46  42 W5        30.15S
ROCHESTER      SUNNY     73  47  39 CALM      30.15
NASHUA         SUNNY     70  46  42 E3        30.18F
MANCHESTER     MOSUNNY   69  43  38 CALM      30.16F
CONCORD        SUNNY     69  44  40 VRB3      30.17F
LACONIA        SUNNY     68  45  42 W5        30.14F
PLYMOUTH       FAIR      64  47  54 CALM      30.15F
BERLIN         SUNNY     68  38  33 CALM      30.14
WHITEFIELD     SUNNY     70  41  34 NW3       30.14
JAFFREY        SUNNY     67  44  43 S7        30.20
KEENE          SUNNY     63  46  55 CALM      30.20F
LEBANON        SUNNY     65  46  50 CALM      30.16F
MT WASHINGTON  MOSUNNY   45  36  70 W21         N/A
$$

VTZ005-007-008-041500-
VERMONT

CITY           SKY/WX    TMP DP  RH WIND       PRES   REMARKS
ST JOHNSBURY     N/A     65  42  43 MISG      30.12F
MONTPELIER     SUNNY     72  42  34 MISG      30.17F
BURLINGTON     MOSUNNY   74  39  28 S18G25    30.09F
$$

MAZ007-012-024-CTZ003-RIZ002-NYZ038-NYZ072-041500-
SOUTHERN NEW ENGLAND AND NY

CITY           SKY/WX    TMP DP  RH WIND       PRES   REMARKS
BOSTON         MOSUNNY   69  46  43 SW8       30.19S
WORCESTER      SUNNY     72  40  31 SW10      30.21S
NANTUCKET      SUNNY     57  48  72 S16G23    30.26R
PROVIDENCE     MOSUNNY   57  49  74 S9        30.22S
HARTFORD       MOSUNNY   67  46  47 VRB3      30.19F
ALBANY         MOSUNNY   68  42  38 S8        30.17F
NEW YORK CITY  SUNNY     65  50  58 NE6       30.21S
$$

ANZ081-ANZ082-ANZ150-NHZ014-MEZ023>029-041500-
COASTAL MARINE OBSERVATIONS

STATION/POSITION TIME  TEMP    WIND        PRES    WAVE
                       AIR SEA DIR/SP/G            HT/PER
                 (UTC) (F)     (DEG/KT/KT) (MB)    (FT/S)
$$

.............KEY..............
   WCI - WIND CHILL
   TC  - TEMPERATURE IN CELSIUS
   VSB - VISIBILITY IN MILES
   HX  - HEAT INDEX
   FAIR- INDICATES FEW OR NO CLOUDS BELOW 12,000 FT, WITH NO
         SIGNIFICANT WEATHER AND/OR OBSTRUCTIONS TO VISIBILITY.




USA.gov is the U.S. government's official web portal to all federal, state and local government web resources and services.